Location: Recife
(8.0585°S, 34.8848°W)
Time: 10:51:07
(UTC-03:00)

Explorer 7 - Pass Details

Date: 14 April 2026
Orbit: 427 x 536 km, 50.2° (Epoch: 14 May)

Event Time Altitude Azimuth Distance (km) Brightness Sun altitude
Rises 02:23:52 0° 308° (NW) 2,432 - -44.6°
Reaches altitude 10° 02:26:08 10° 298° (WNW) 1,549 - -44.0°
Maximum altitude 02:29:19 33° 232° (SW) 743 - -43.2°
Drops below altitude 10° 02:32:27 10° 165° (SSE) 1,527 - -42.4°
Sets 02:34:41 0° 155° (SSE) 2,392 - -41.9°
